contact:dominique.lefevre@mio.osupytheas.fr, maurice.libes@osupytheas.fr, didier.mallarino@osupytheas.fr
Project:EMSO http://www.emso-fr.org/EMSO-France
Depth: 2436.0 m
Title:EMSO Ligure Ouest : Data MII capteur AQUADOPP
Date,Latitude,Longitude,X_East,Y_North,Z_Up,Amplitude_X,Amplitude_Y,Amplitude_Z,Batterie,SoundSpeed,Heading,Pitch,Roll,Pressure,TIS,Speed,Direction
, degrees North, degrees East, m.s-1, m.s-1,m.s-1, 1, 1, 1, Volt, m.s-1, degree, degree, degree, dbar, degree_C, m.s-1, degree
2019-07-19T00:00:41,42.805,6.029,-0.035,-0.001,-0.03,105.0,111.0,100.0,13.3,1505.4,325.7,-0.7,1.8,2470.105,13.34,0.035,268.4
2019-07-19T00:03:42,42.805,6.029,-0.028,0.013,-0.023,104.0,111.0,100.0,13.4,1505.4,325.8,-0.7,1.8,2470.15,13.34,0.03,294.9
2019-07-19T00:06:43,42.805,6.029,-0.031,0.022,-0.017,106.0,110.0,100.0,13.3,1505.4,326.5,-0.7,1.9,2470.135,13.34,0.038,305.4
2019-07-19T00:09:44,42.805,6.029,-0.038,-0.007,-0.049,102.0,109.0,99.0,13.4,1505.4,326.0,-0.7,1.9,2470.154,13.34,0.038,259.6
2019-07-19T00:12:45,42.805,6.029,-0.026,-0.004,-0.035,104.0,111.0,100.0,13.4,1505.4,324.9,-0.7,1.8,2470.108,13.34,0.026,261.3
2019-07-19T00:15:46,42.805,6.029,-0.017,0.007,0.007,104.0,111.0,100.0,13.3,1505.4,323.0,-0.7,1.8,2470.196,13.34,0.018,292.4
2019-07-19T00:18:47,42.805,6.029,-0.025,0.005,-0.019,103.0,111.0,102.0,13.4,1505.4,326.7,-0.7,1.8,2470.094,13.34,0.025,281.3
2019-07-19T00:21:48,42.805,6.029,-0.048,0.008,-0.063,105.0,109.0,100.0,13.3,1505.4,326.5,-0.7,1.8,2470.098,13.34,0.048,279.5
2019-07-19T00:24:49,42.805,6.029,-0.028,0.016,-0.017,102.0,111.0,100.0,13.4,1505.4,325.3,-0.7,1.9,2470.145,13.34,0.032,299.7
2019-07-19T00:27:50,42.805,6.029,-0.032,0.011,-0.018,101.0,110.0,100.0,13.4,1505.4,323.4,-0.7,1.8,2470.102,13.34,0.033,289.0
2019-07-19T00:30:51,42.805,6.029,-0.028,0.001,-0.027,104.0,108.0,99.0,13.3,1505.4,325.1,-0.7,1.9,2470.138,13.34,0.028,272.0
2019-07-19T00:33:52,42.805,6.029,-0.011,-0.004,-0.007,103.0,110.0,100.0,13.4,1505.4,323.5,-0.7,1.8,2470.135,13.34,0.011,250.0
2019-07-19T00:36:53,42.805,6.029,-0.025,0.007,-0.028,103.0,110.0,98.0,13.4,1505.4,323.8,-0.7,1.9,2470.134,13.34,0.025,285.6
2019-07-19T00:39:54,42.805,6.029,0.001,-0.011,-0.002,104.0,110.0,100.0,13.4,1505.4,325.3,-0.7,1.8,2470.131,13.34,0.011,174.8
2019-07-19T00:42:55,42.805,6.029,-0.014,-0.004,0.007,101.0,111.0,100.0,13.4,1505.4,327.5,-0.7,1.8,2470.135,13.34,0.014,254.1
2019-07-19T00:45:56,42.805,6.029,-0.041,0.007,0.029,103.0,111.0,101.0,13.4,1505.4,326.6,-0.8,1.9,2470.106,13.34,0.041,279.7
2019-07-19T00:48:57,42.805,6.029,-0.051,0.007,-0.04,102.0,109.0,99.0,13.4,1505.4,327.2,-0.7,1.9,2470.092,13.34,0.051,277.8
2019-07-19T00:51:58,42.805,6.029,-0.009,0.002,0.009,103.0,108.0,100.0,13.4,1505.4,325.0,-0.7,1.8,2470.081,13.34,0.009,282.5
2019-07-19T00:54:59,42.805,6.029,-0.004,0.011,-0.021,103.0,111.0,100.0,13.4,1505.4,325.0,-0.7,1.9,2470.134,13.34,0.011,340.0
2019-07-19T00:58:00,42.805,6.029,-0.033,0.005,-0.003,104.0,110.0,99.0,13.3,1505.4,327.8,-0.7,1.9,2470.12,13.34,0.033,278.6
2019-07-19T01:01:01,42.805,6.029,-0.018,0.002,-0.026,102.0,110.0,98.0,13.3,1505.4,326.9,-0.7,1.8,2470.141,13.34,0.018,276.3
2019-07-19T01:04:02,42.805,6.029,-0.012,0.031,0.009,104.0,110.0,99.0,13.3,1505.4,328.1,-0.7,1.9,2470.091,13.34,0.033,338.8
2019-07-19T01:07:03,42.805,6.029,-0.01,0.008,0.006,103.0,112.0,99.0,13.4,1505.4,323.9,-0.7,1.8,2470.123,13.34,0.012,308.7
2019-07-19T01:10:04,42.805,6.029,-0.036,-0.005,0.0,104.0,111.0,99.0,13.4,1505.4,327.6,-0.7,1.9,2470.086,13.34,0.036,262.1
2019-07-19T01:13:05,42.805,6.029,-0.028,0.015,-0.036,105.0,111.0,101.0,13.4,1505.4,326.9,-0.8,1.9,2470.107,13.34,0.031,298.2
2019-07-19T01:16:06,42.805,6.029,-0.011,0.009,0.002,105.0,111.0,100.0,13.4,1505.4,327.7,-0.7,1.8,2470.097,13.34,0.014,309.3
2019-07-19T01:19:07,42.805,6.029,-0.03,0.021,-0.06,105.0,111.0,100.0,13.3,1505.4,326.5,-0.7,1.8,2470.071,13.34,0.036,305.0
2019-07-19T01:22:08,42.805,6.029,-0.011,0.005,-0.008,104.0,113.0,100.0,13.3,1505.4,327.5,-0.7,1.8,2470.104,13.34,0.012,294.4
2019-07-19T01:25:09,42.805,6.029,-0.023,-0.006,-0.025,104.0,110.0,99.0,13.4,1505.4,324.9,-0.7,1.8,2470.082,13.34,0.023,255.4
2019-07-19T01:28:10,42.805,6.029,-0.03,0.008,-0.009,104.0,110.0,100.0,13.4,1505.4,324.8,-0.7,1.9,2470.06,13.34,0.031,284.9
2019-07-19T01:31:11,42.805,6.029,-0.019,-0.019,-0.021,103.0,110.0,100.0,13.4,1505.4,323.7,-0.7,1.8,2470.106,13.34,0.026,225.0
2019-07-19T01:34:12,42.805,6.029,-0.024,0.015,-0.022,105.0,111.0,99.0,13.4,1505.4,327.1,-0.7,1.8,2470.102,13.34,0.028,302.0
2019-07-19T01:37:13,42.805,6.029,-0.016,0.017,0.006,102.0,110.0,100.0,13.3,1505.4,323.2,-0.8,1.8,2470.096,13.34,0.023,316.7
2019-07-19T01:40:14,42.805,6.029,-0.035,0.022,-0.018,102.0,112.0,99.0,13.3,1505.4,327.2,-0.7,1.8,2470.089,13.34,0.041,302.2
2019-07-19T01:43:15,42.805,6.029,-0.023,0.019,-0.007,103.0,110.0,99.0,13.4,1505.4,326.9,-0.8,1.8,2470.058,13.34,0.029,309.6
2019-07-19T01:46:16,42.805,6.029,-0.018,0.002,-0.006,103.0,111.0,98.0,13.4,1505.4,327.5,-0.8,1.8,2470.045,13.34,0.018,276.3
2019-07-19T01:49:17,42.805,6.029,-0.058,0.0,-0.02,103.0,109.0,99.0,13.4,1505.4,326.0,-0.7,1.8,2470.098,13.34,0.057,270.0
2019-07-19T01:52:18,42.805,6.029,-0.03,-0.002,-0.049,102.0,110.0,99.0,13.4,1505.4,327.7,-0.7,1.8,2470.049,13.34,0.03,266.2
2019-07-19T01:55:19,42.805,6.029,-0.029,0.011,-0.008,104.0,113.0,100.0,13.4,1505.4,326.6,-0.7,1.9,2470.093,13.34,0.031,290.8
2019-07-19T01:58:20,42.805,6.029,-0.047,0.025,-0.008,105.0,109.0,100.0,13.4,1505.4,328.2,-0.7,1.9,2470.085,13.34,0.053,298.0
2019-07-19T02:01:21,42.805,6.029,-0.02,-0.016,0.011,103.0,110.0,101.0,13.4,1505.4,324.2,-0.7,1.8,2470.082,13.34,0.025,231.3
2019-07-19T02:04:22,42.805,6.029,-0.055,0.0,-0.053,103.0,107.0,102.0,13.4,1505.4,327.3,-0.7,1.8,2470.083,13.34,0.055,270.0
2019-07-19T02:07:23,42.805,6.029,-0.028,0.006,0.008,104.0,108.0,101.0,13.4,1505.4,323.6,-0.7,1.8,2470.099,13.34,0.028,282.1
2019-07-19T02:10:24,42.805,6.029,-0.023,-0.002,0.013,104.0,108.0,100.0,13.4,1505.4,325.0,-0.7,1.9,2470.051,13.34,0.023,265.0
2019-07-19T02:13:25,42.805,6.029,-0.049,-0.004,-0.023,104.0,108.0,100.0,13.3,1505.4,323.5,-0.7,1.8,2470.076,13.34,0.049,265.3
2019-07-19T02:16:26,42.805,6.029,-0.046,0.007,-0.024,104.0,110.0,99.0,13.4,1505.4,325.3,-0.7,1.8,2470.009,13.34,0.046,278.7
2019-07-19T02:19:27,42.805,6.029,-0.044,-0.007,-0.013,102.0,109.0,100.0,13.3,1505.4,323.4,-0.7,1.8,2470.08,13.34,0.044,261.0
2019-07-19T02:22:28,42.805,6.029,-0.028,0.004,0.013,102.0,110.0,99.0,13.3,1505.4,326.7,-0.7,1.8,2470.092,13.34,0.028,278.1
2019-07-19T02:25:29,42.805,6.029,-0.02,0.017,0.0,103.0,110.0,97.0,13.3,1505.4,327.0,-0.8,1.8,2470.096,13.34,0.026,310.4
2019-07-19T02:28:30,42.805,6.029,-0.021,0.005,0.017,103.0,107.0,98.0,13.3,1505.4,326.4,-0.7,1.8,2470.08,13.34,0.021,283.4
2019-07-19T02:31:31,42.805,6.029,-0.011,0.015,0.013,104.0,107.0,99.0,13.4,1505.4,326.7,-0.7,1.8,2470.057,13.34,0.018,323.7
2019-07-19T02:34:32,42.805,6.029,-0.012,-0.005,-0.009,105.0,109.0,99.0,13.4,1505.4,325.8,-0.7,1.8,2470.044,13.34,0.013,247.4
2019-07-19T02:37:33,42.805,6.029,-0.017,0.018,0.015,103.0,110.0,100.0,13.4,1505.4,327.5,-0.7,1.8,2470.073,13.34,0.024,316.6
2019-07-19T02:40:34,42.805,6.029,-0.04,-0.003,-0.016,105.0,108.0,101.0,13.4,1505.4,323.3,-0.7,1.8,2470.06,13.34,0.04,265.7
2019-07-19T02:43:35,42.805,6.029,-0.032,0.006,-0.031,104.0,111.0,101.0,13.4,1505.3,325.4,-0.7,1.8,2470.054,13.33,0.032,280.6
2019-07-19T02:46:36,42.805,6.029,-0.02,-0.001,-0.025,104.0,107.0,101.0,13.4,1505.3,325.9,-0.7,1.8,2470.094,13.33,0.02,267.1
2019-07-19T02:49:37,42.805,6.029,-0.01,0.004,-0.021,104.0,111.0,101.0,13.4,1505.3,323.8,-0.7,1.8,2470.035,13.33,0.01,291.8
2019-07-19T02:52:38,42.805,6.029,-0.032,0.013,-0.019,105.0,109.0,99.0,13.3,1505.3,324.5,-0.7,1.8,2470.081,13.33,0.034,292.1
2019-07-19T02:55:39,42.805,6.029,-0.017,-0.014,-0.003,107.0,110.0,101.0,13.4,1505.3,323.2,-0.7,1.9,2470.047,13.33,0.022,230.5
2019-07-19T02:58:40,42.805,6.029,-0.01,0.014,0.032,103.0,110.0,101.0,13.3,1505.3,325.3,-0.7,1.9,2470.047,13.33,0.017,324.5
2019-07-19T03:01:41,42.805,6.029,-0.007,0.007,-0.007,104.0,109.0,101.0,13.4,1505.3,327.8,-0.7,1.9,2470.037,13.33,0.009,315.0
2019-07-19T03:04:42,42.805,6.029,-0.016,0.005,0.025,105.0,109.0,100.0,13.4,1505.3,324.6,-0.7,1.8,2470.044,13.33,0.016,287.4
2019-07-19T03:07:43,42.805,6.029,-0.023,-0.015,0.0,104.0,109.0,101.0,13.3,1505.3,323.3,-0.7,1.8,2470.034,13.33,0.027,236.9
2019-07-19T03:10:44,42.805,6.029,-0.035,0.019,-0.012,104.0,109.0,101.0,13.3,1505.3,324.9,-0.7,1.9,2470.059,13.33,0.039,298.5
2019-07-19T03:13:45,42.805,6.029,-0.017,0.009,0.001,104.0,109.0,99.0,13.4,1505.3,326.3,-0.7,1.8,2470.099,13.33,0.019,297.9
2019-07-19T03:16:46,42.805,6.029,-0.017,0.009,0.008,104.0,110.0,99.0,13.4,1505.3,323.8,-0.7,1.8,2470.071,13.33,0.019,297.9
2019-07-19T03:19:47,42.805,6.029,-0.022,0.01,0.0,105.0,109.0,101.0,13.3,1505.3,325.5,-0.7,1.8,2470.086,13.33,0.024,294.4
2019-07-19T03:22:48,42.805,6.029,-0.03,-0.003,0.027,104.0,109.0,99.0,13.4,1505.3,328.0,-0.7,1.8,2470.075,13.33,0.03,264.3
2019-07-19T03:25:49,42.805,6.029,-0.029,-0.013,-0.006,103.0,111.0,101.0,13.4,1505.3,324.8,-0.7,1.8,2470.064,13.33,0.031,245.9
2019-07-19T03:28:50,42.805,6.029,0.019,0.0,0.014,104.0,108.0,100.0,13.3,1505.3,327.8,-0.7,1.8,2470.05,13.33,0.019,90.0
2019-07-19T03:31:51,42.805,6.029,-0.004,0.026,0.05,103.0,109.0,101.0,13.3,1505.3,325.7,-0.7,1.9,2470.043,13.33,0.026,351.3
2019-07-19T03:34:52,42.805,6.029,0.001,0.022,0.007,104.0,110.0,101.0,13.3,1505.3,327.4,-0.7,1.8,2470.001,13.33,0.022,2.6
2019-07-19T03:37:53,42.805,6.029,-0.029,0.008,0.018,105.0,109.0,101.0,13.4,1505.3,324.4,-0.7,1.9,2470.048,13.33,0.03,285.4
2019-07-19T03:40:54,42.805,6.029,-0.031,0.016,-0.013,106.0,110.0,101.0,13.4,1505.3,326.1,-0.7,1.8,2470.039,13.33,0.034,297.3
2019-07-19T03:43:55,42.805,6.029,-0.029,0.0,0.0,106.0,110.0,101.0,13.4,1505.3,326.7,-0.7,1.9,2470.034,13.33,0.028,270.0
2019-07-19T03:46:56,42.805,6.029,-0.058,0.009,-0.01,104.0,109.0,100.0,13.4,1505.3,324.9,-0.7,1.9,2470.023,13.33,0.058,278.8
2019-07-19T03:49:57,42.805,6.029,-0.027,0.006,-0.013,106.0,111.0,100.0,13.4,1505.3,323.2,-0.7,1.8,2470.044,13.33,0.027,282.5
2019-07-19T03:52:58,42.805,6.029,-0.034,0.005,0.019,103.0,109.0,100.0,13.4,1505.3,324.3,-0.7,1.8,2470.072,13.33,0.034,278.4
2019-07-19T03:55:59,42.805,6.029,-0.018,0.016,-0.002,104.0,111.0,100.0,13.4,1505.3,322.8,-0.7,1.9,2470.037,13.33,0.024,311.6
2019-07-19T03:59:00,42.805,6.029,-0.023,0.014,0.009,105.0,109.0,102.0,13.4,1505.3,324.8,-0.7,1.8,2470.061,13.33,0.026,301.3
2019-07-19T04:02:01,42.805,6.029,-0.022,0.013,-0.003,106.0,110.0,101.0,13.4,1505.3,326.5,-0.7,1.9,2470.067,13.33,0.025,300.6
2019-07-19T04:05:02,42.805,6.029,-0.031,0.01,0.02,106.0,108.0,101.0,13.4,1505.3,324.2,-0.7,1.8,2470.027,13.33,0.032,287.9
2019-07-19T04:08:03,42.805,6.029,-0.041,0.022,-0.005,105.0,109.0,101.0,13.3,1505.3,323.4,-0.7,1.8,2470.009,13.33,0.046,298.2
2019-07-19T04:11:04,42.805,6.029,-0.024,0.001,-0.004,105.0,112.0,101.0,13.4,1505.3,327.2,-0.7,1.8,2470.074,13.33,0.024,272.4
2019-07-19T04:14:05,42.805,6.029,-0.043,0.013,-0.005,105.0,110.0,102.0,13.4,1505.3,325.9,-0.7,1.8,2470.063,13.33,0.044,286.8
2019-07-19T04:17:06,42.805,6.029,0.008,-0.008,0.016,105.0,110.0,102.0,13.3,1505.3,323.9,-0.7,1.8,2470.09,13.33,0.011,135.0
2019-07-19T04:20:07,42.805,6.029,-0.021,0.016,-0.016,105.0,111.0,101.0,13.3,1505.3,326.1,-0.7,1.8,2470.043,13.33,0.026,307.3
2019-07-19T04:23:08,42.805,6.029,-0.027,-0.002,-0.014,106.0,110.0,101.0,13.3,1505.3,327.1,-0.8,1.8,2470.022,13.33,0.027,265.8
2019-07-19T04:26:09,42.805,6.029,-0.046,-0.017,-0.027,106.0,110.0,102.0,13.3,1505.3,324.4,-0.7,1.9,2470.032,13.33,0.049,249.7
2019-07-19T04:29:10,42.805,6.029,-0.031,0.0,-0.033,105.0,108.0,102.0,13.3,1505.4,323.6,-0.7,1.8,2470.039,13.34,0.03,270.0
2019-07-19T04:32:11,42.805,6.029,-0.01,0.003,0.003,105.0,111.0,101.0,13.3,1505.3,324.7,-0.7,1.8,2470.046,13.33,0.01,286.7
2019-07-19T04:35:12,42.805,6.029,-0.017,-0.01,-0.014,103.0,110.0,101.0,13.4,1505.3,323.4,-0.8,1.8,2470.076,13.33,0.019,239.5
2019-07-19T04:38:13,42.805,6.029,-0.004,0.017,0.019,104.0,111.0,101.0,13.3,1505.3,328.4,-0.7,1.8,2470.052,13.33,0.017,346.8
2019-07-19T04:41:14,42.805,6.029,-0.018,0.012,-0.003,106.0,110.0,102.0,13.3,1505.3,324.2,-0.7,1.8,2470.025,13.33,0.021,303.7
2019-07-19T04:44:15,42.805,6.029,-0.032,0.021,0.011,105.0,110.0,101.0,13.3,1505.3,323.9,-0.7,1.8,2470.067,13.33,0.038,303.3
2019-07-19T04:47:16,42.805,6.029,-0.015,-0.011,0.007,104.0,111.0,101.0,13.4,1505.3,326.9,-0.7,1.8,2470.09,13.33,0.018,233.7
2019-07-19T04:50:17,42.805,6.029,-0.031,0.002,-0.032,104.0,111.0,99.0,13.3,1505.3,325.1,-0.7,1.8,2470.075,13.33,0.031,273.7
2019-07-19T04:53:18,42.805,6.029,-0.01,0.024,0.011,105.0,111.0,100.0,13.3,1505.3,327.7,-0.7,1.9,2470.064,13.33,0.026,337.4
2019-07-19T04:56:19,42.805,6.029,-0.014,0.0,0.002,104.0,110.0,102.0,13.4,1505.3,324.5,-0.7,1.8,2470.072,13.33,0.014,270.0
2019-07-19T04:59:20,42.805,6.029,-0.034,0.006,0.003,106.0,111.0,101.0,13.4,1505.3,326.1,-0.7,1.8,2470.095,13.33,0.034,280.0
2019-07-19T05:02:21,42.805,6.029,-0.032,0.025,0.004,105.0,111.0,101.0,13.4,1505.3,328.2,-0.7,1.8,2470.063,13.33,0.04,308.0
2019-07-19T05:05:22,42.805,6.029,-0.019,0.011,0.013,105.0,111.0,102.0,13.4,1505.3,324.9,-0.7,1.8,2470.105,13.33,0.021,300.1
2019-07-19T05:08:23,42.805,6.029,-0.06,0.025,-0.037,106.0,111.0,100.0,13.4,1505.3,325.9,-0.7,1.8,2470.083,13.33,0.064,292.6
2019-07-19T05:11:24,42.805,6.029,-0.042,-0.005,0.02,106.0,113.0,102.0,13.4,1505.3,326.0,-0.7,1.8,2470.107,13.33,0.042,263.2
2019-07-19T05:14:25,42.805,6.029,-0.039,0.014,-0.027,106.0,110.0,102.0,13.4,1505.3,326.6,-0.7,1.9,2470.069,13.33,0.041,289.7
2019-07-19T05:17:26,42.805,6.029,-0.014,0.023,0.009,105.0,110.0,101.0,13.4,1505.3,328.6,-0.7,1.9,2470.067,13.33,0.026,328.7
2019-07-19T05:20:27,42.805,6.029,-0.027,0.019,-0.006,105.0,110.0,102.0,13.4,1505.3,325.9,-0.7,1.8,2470.072,13.33,0.033,305.1
2019-07-19T05:23:28,42.805,6.029,-0.055,0.009,-0.012,105.0,111.0,102.0,13.3,1505.3,327.6,-0.7,1.8,2470.077,13.33,0.055,279.3
2019-07-19T05:26:29,42.805,6.029,-0.022,0.015,0.017,105.0,111.0,101.0,13.4,1505.3,326.0,-0.7,1.9,2470.067,13.33,0.026,304.3
2019-07-19T05:29:30,42.805,6.029,-0.057,0.018,-0.043,105.0,112.0,101.0,13.3,1505.3,324.7,-0.7,1.8,2470.075,13.33,0.059,287.5
2019-07-19T05:32:30,42.805,6.029,-0.024,0.0,0.02,107.0,111.0,101.0,13.4,1505.3,325.7,-0.8,1.8,2470.064,13.33,0.024,270.0
2019-07-19T05:35:31,42.805,6.029,-0.036,0.003,0.002,106.0,111.0,101.0,13.4,1505.3,326.8,-0.7,1.8,2470.103,13.33,0.036,274.8
2019-07-19T05:38:33,42.805,6.029,-0.024,-0.005,-0.037,105.0,110.0,100.0,13.4,1505.3,327.8,-0.7,1.8,2470.096,13.33,0.024,258.2
2019-07-19T05:41:33,42.805,6.029,-0.014,0.014,0.012,103.0,111.0,100.0,13.3,1505.3,324.1,-0.7,1.8,2470.074,13.33,0.019,315.0
2019-07-19T05:44:34,42.805,6.029,-0.025,0.017,0.027,106.0,110.0,101.0,13.4,1505.3,325.9,-0.7,1.8,2470.103,13.33,0.03,304.2
2019-07-19T05:47:35,42.805,6.029,-0.019,0.008,0.011,104.0,110.0,100.0,13.4,1505.3,328.1,-0.7,1.8,2470.1,13.33,0.02,292.8
2019-07-19T05:50:37,42.805,6.029,-0.031,-0.002,0.007,104.0,111.0,101.0,13.4,1505.3,322.9,-0.7,1.9,2470.094,13.33,0.031,266.3
2019-07-19T05:53:38,42.805,6.029,-0.053,0.0,-0.037,106.0,110.0,100.0,13.3,1505.3,326.0,-0.8,1.8,2470.084,13.33,0.053,270.0
2019-07-19T05:56:38,42.805,6.029,-0.047,0.028,-0.01,105.0,112.0,101.0,13.3,1505.3,326.4,-0.7,1.8,2470.1,13.33,0.054,300.8
2019-07-19T05:59:39,42.805,6.029,-0.027,0.012,0.0,105.0,111.0,102.0,13.4,1505.3,328.2,-0.7,1.8,2470.079,13.33,0.029,294.0
2019-07-19T06:02:40,42.805,6.029,-0.032,0.027,0.003,105.0,113.0,101.0,13.4,1505.3,326.3,-0.7,1.8,2470.115,13.33,0.041,310.2
2019-07-19T06:05:41,42.805,6.029,-0.032,0.004,-0.001,105.0,112.0,101.0,13.4,1505.3,324.1,-0.7,1.8,2470.125,13.33,0.032,277.1
2019-07-19T06:08:42,42.805,6.029,-0.051,0.016,-0.045,105.0,111.0,101.0,13.3,1505.3,325.1,-0.7,1.8,2470.118,13.33,0.053,287.4
2019-07-19T06:11:43,42.805,6.029,-0.016,0.03,0.001,106.0,112.0,102.0,13.4,1505.3,323.5,-0.7,1.8,2470.096,13.33,0.034,331.9
2019-07-19T06:14:44,42.805,6.029,-0.033,0.002,-0.001,105.0,112.0,101.0,13.4,1505.3,326.5,-0.7,1.8,2470.107,13.33,0.033,273.5
2019-07-19T06:17:45,42.805,6.029,-0.054,0.014,-0.017,105.0,112.0,101.0,13.4,1505.3,327.4,-0.7,1.8,2470.093,13.33,0.055,284.5
2019-07-19T06:20:46,42.805,6.029,-0.027,0.027,0.007,106.0,112.0,100.0,13.4,1505.3,326.9,-0.7,1.8,2470.103,13.33,0.038,315.0
2019-07-19T06:23:47,42.805,6.029,-0.05,0.016,-0.023,105.0,112.0,101.0,13.4,1505.3,327.9,-0.7,1.9,2470.106,13.33,0.052,287.7
2019-07-19T06:26:48,42.805,6.029,-0.049,0.025,-0.015,104.0,113.0,101.0,13.4,1505.3,322.8,-0.7,1.8,2470.11,13.33,0.055,297.0
2019-07-19T06:29:49,42.805,6.029,-0.055,-0.006,-0.02,105.0,109.0,102.0,13.4,1505.3,324.4,-0.7,1.8,2470.11,13.33,0.055,263.8
2019-07-19T06:32:50,42.805,6.029,-0.023,0.008,-0.04,106.0,112.0,101.0,13.4,1505.3,325.1,-0.7,1.8,2470.113,13.33,0.024,289.2
2019-07-19T06:35:51,42.805,6.029,-0.024,0.024,0.012,106.0,112.0,100.0,13.4,1505.3,325.7,-0.7,1.8,2470.119,13.33,0.033,315.0
2019-07-19T06:38:52,42.805,6.029,-0.013,0.013,-0.013,106.0,112.0,101.0,13.4,1505.3,328.0,-0.8,1.8,2470.147,13.33,0.018,315.0
2019-07-19T06:41:53,42.805,6.029,-0.031,0.017,-0.006,104.0,111.0,102.0,13.3,1505.3,326.5,-0.7,1.8,2470.117,13.33,0.035,298.7
2019-07-19T06:44:54,42.805,6.029,-0.058,0.013,-0.014,104.0,111.0,101.0,13.4,1505.3,327.4,-0.7,1.8,2470.143,13.33,0.059,282.6
2019-07-19T06:47:55,42.805,6.029,-0.033,0.012,-0.007,105.0,111.0,101.0,13.3,1505.3,324.9,-0.7,1.8,2470.106,13.33,0.035,290.0
2019-07-19T06:50:56,42.805,6.029,-0.027,0.019,-0.007,106.0,111.0,101.0,13.3,1505.3,326.9,-0.7,1.8,2470.135,13.33,0.033,305.1
2019-07-19T06:53:57,42.805,6.029,-0.022,0.013,-0.008,105.0,113.0,102.0,13.4,1505.3,324.5,-0.7,1.8,2470.129,13.33,0.025,300.6
2019-07-19T06:56:58,42.805,6.029,-0.025,0.007,-0.02,104.0,112.0,101.0,13.4,1505.3,325.7,-0.7,1.9,2470.159,13.33,0.025,285.6
2019-07-19T06:59:59,42.805,6.029,-0.039,0.005,-0.009,104.0,111.0,101.0,13.4,1505.3,323.0,-0.8,1.8,2470.174,13.33,0.039,277.3
2019-07-19T07:03:00,42.805,6.029,-0.034,0.013,-0.017,105.0,112.0,102.0,13.3,1505.3,326.2,-0.7,1.9,2470.122,13.33,0.036,290.9
2019-07-19T07:06:01,42.805,6.029,-0.019,-0.002,0.005,105.0,112.0,101.0,13.4,1505.3,326.7,-0.7,1.8,2470.158,13.33,0.019,264.0
2019-07-19T07:09:02,42.805,6.029,-0.052,0.02,-0.003,104.0,112.0,102.0,13.4,1505.3,323.1,-0.7,1.9,2470.119,13.33,0.055,291.0
2019-07-19T07:12:03,42.805,6.029,-0.032,-0.007,-0.007,105.0,114.0,101.0,13.4,1505.3,327.3,-0.7,1.9,2470.147,13.33,0.032,257.7
2019-07-19T07:15:04,42.805,6.029,-0.038,0.014,-0.019,106.0,112.0,101.0,13.4,1505.3,324.2,-0.7,1.8,2470.125,13.33,0.04,290.2
2019-07-19T07:18:05,42.805,6.029,-0.028,0.003,-0.009,105.0,112.0,101.0,13.4,1505.3,325.7,-0.7,1.8,2470.106,13.33,0.028,276.1
2019-07-19T07:21:06,42.805,6.029,-0.042,-0.005,0.016,105.0,111.0,102.0,13.4,1505.3,326.2,-0.7,1.8,2470.134,13.33,0.042,263.2
2019-07-19T07:24:07,42.805,6.029,-0.022,0.027,-0.05,107.0,112.0,101.0,13.4,1505.3,327.4,-0.7,1.8,2470.154,13.33,0.034,320.8
2019-07-19T07:27:08,42.805,6.029,-0.028,0.009,-0.019,103.0,111.0,100.0,13.4,1505.3,325.2,-0.7,1.8,2470.164,13.33,0.029,287.8
2019-07-19T07:30:09,42.805,6.029,-0.042,0.023,-0.027,105.0,111.0,101.0,13.4,1505.3,324.5,-0.7,1.8,2470.154,13.33,0.047,298.7
2019-07-19T07:33:10,42.805,6.029,-0.008,-0.004,0.004,107.0,113.0,100.0,13.4,1505.3,322.7,-0.8,1.8,2470.143,13.33,0.008,243.4
2019-07-19T07:36:11,42.805,6.029,-0.03,-0.01,0.02,106.0,112.0,101.0,13.4,1505.3,325.0,-0.7,1.8,2470.139,13.33,0.031,251.6
2019-07-19T07:39:12,42.805,6.029,-0.044,0.034,-0.025,106.0,112.0,100.0,13.4,1505.3,327.8,-0.7,1.8,2470.179,13.33,0.055,307.7
2019-07-19T07:42:13,42.805,6.029,-0.008,0.01,0.036,106.0,113.0,100.0,13.3,1505.3,324.7,-0.7,1.8,2470.147,13.33,0.012,321.3
2019-07-19T07:45:14,42.805,6.029,-0.021,0.02,-0.034,107.0,113.0,100.0,13.4,1505.3,328.3,-0.7,1.8,2470.162,13.33,0.028,313.6
2019-07-19T07:48:15,42.805,6.029,-0.012,0.013,-0.011,104.0,114.0,102.0,13.3,1505.3,323.4,-0.7,1.8,2470.184,13.33,0.017,317.3
2019-07-19T07:51:16,42.805,6.029,-0.032,0.023,-0.012,105.0,113.0,102.0,13.4,1505.3,324.6,-0.7,1.9,2470.164,13.33,0.039,305.7
2019-07-19T07:54:17,42.805,6.029,-0.047,0.006,-0.042,105.0,113.0,102.0,13.4,1505.3,323.8,-0.7,1.9,2470.163,13.33,0.047,277.3
2019-07-19T07:57:18,42.805,6.029,-0.021,0.024,-0.002,105.0,112.0,101.0,13.3,1505.3,325.5,-0.7,1.8,2470.176,13.33,0.031,318.8
2019-07-19T08:00:19,42.805,6.029,-0.04,0.023,-0.007,106.0,113.0,101.0,13.4,1505.3,323.8,-0.7,1.8,2470.122,13.33,0.046,299.9
2019-07-19T08:03:20,42.805,6.029,-0.031,0.022,0.0,107.0,114.0,100.0,13.4,1505.3,325.0,-0.7,1.8,2470.182,13.33,0.038,305.4
2019-07-19T08:06:21,42.805,6.029,-0.034,0.033,-0.023,108.0,112.0,101.0,13.4,1505.3,326.3,-0.8,1.8,2470.132,13.33,0.047,314.1
2019-07-19T08:09:22,42.805,6.029,-0.045,0.003,-0.014,106.0,112.0,103.0,13.4,1505.3,324.4,-0.7,1.8,2470.159,13.33,0.045,273.8
2019-07-19T08:12:23,42.805,6.029,-0.035,0.0,-0.034,105.0,113.0,100.0,13.4,1505.3,326.7,-0.7,1.8,2470.214,13.33,0.035,270.0
2019-07-19T08:15:24,42.805,6.029,-0.033,0.005,-0.013,106.0,111.0,101.0,13.4,1505.3,323.7,-0.7,1.9,2470.139,13.33,0.033,278.6
2019-07-19T08:18:25,42.805,6.029,-0.011,0.016,0.0,108.0,113.0,101.0,13.3,1505.3,327.1,-0.7,1.8,2470.166,13.33,0.019,325.5
2019-07-19T08:21:26,42.805,6.029,-0.026,0.011,-0.007,106.0,112.0,101.0,13.3,1505.3,325.3,-0.7,1.8,2470.131,13.33,0.028,292.9
2019-07-19T08:24:27,42.805,6.029,-0.03,0.018,0.004,104.0,113.0,100.0,13.4,1505.3,323.3,-0.7,1.9,2470.156,13.33,0.034,301.0
2019-07-19T08:27:28,42.805,6.029,-0.013,0.011,0.004,104.0,113.0,99.0,13.3,1505.3,325.4,-0.7,1.9,2470.188,13.33,0.017,310.2
2019-07-19T08:30:29,42.805,6.029,-0.043,0.018,0.018,104.0,114.0,100.0,13.4,1505.3,324.6,-0.8,1.8,2470.116,13.33,0.046,292.7
2019-07-19T08:33:30,42.805,6.029,-0.043,0.031,-0.009,104.0,111.0,100.0,13.4,1505.3,326.8,-0.7,1.8,2470.169,13.33,0.053,305.8
2019-07-19T22:09:04,42.805,6.029,-0.009,0.017,-0.001,103.0,111.0,102.0,13.3,1505.1,326.9,-0.8,1.9,2470.797,13.27,0.019,332.1
2019-07-19T22:12:05,42.805,6.029,-0.014,0.005,0.034,106.0,109.0,100.0,13.3,1505.2,328.0,-0.8,1.9,2470.716,13.29,0.014,289.6
2019-07-19T22:15:06,42.805,6.029,-0.019,-0.002,-0.04,104.0,109.0,100.0,13.4,1505.3,324.9,-0.8,1.8,2470.613,13.31,0.019,264.0
2019-07-19T22:18:07,42.805,6.029,-0.014,0.006,-0.023,109.0,112.0,100.0,13.4,1505.3,328.3,-0.7,1.8,2470.542,13.31,0.015,293.2
2019-07-19T22:21:08,42.805,6.029,-0.014,0.0,0.0,105.0,111.0,101.0,13.4,1505.3,325.3,-0.7,1.8,2470.442,13.32,0.014,270.0
2019-07-19T22:24:09,42.805,6.029,-0.034,0.009,-0.036,105.0,112.0,101.0,13.4,1505.3,325.7,-0.7,1.8,2470.435,13.33,0.035,284.8
2019-07-19T22:27:10,42.805,6.029,-0.03,0.01,-0.036,107.0,112.0,102.0,13.4,1505.3,323.4,-0.7,1.9,2470.351,13.33,0.031,288.4
2019-07-19T22:30:11,42.805,6.029,-0.001,0.019,-0.017,105.0,111.0,101.0,13.4,1505.3,328.2,-0.7,1.8,2470.334,13.33,0.019,357.0
2019-07-19T22:33:12,42.805,6.029,-0.005,-0.001,-0.005,105.0,111.0,101.0,13.4,1505.4,325.2,-0.7,1.9,2470.259,13.34,0.005,258.7
2019-07-19T22:36:13,42.805,6.029,-0.029,0.002,-0.024,105.0,112.0,101.0,13.3,1505.4,323.3,-0.7,1.8,2470.244,13.34,0.029,273.9
2019-07-19T22:39:14,42.805,6.029,-0.021,0.01,-0.036,104.0,110.0,101.0,13.4,1505.4,328.5,-0.7,1.9,2470.21,13.34,0.023,295.5
2019-07-19T22:42:15,42.805,6.029,-0.023,-0.009,0.02,104.0,109.0,101.0,13.4,1505.4,325.3,-0.7,1.9,2470.222,13.34,0.024,248.6
2019-07-19T22:45:16,42.805,6.029,-0.023,0.018,-0.032,105.0,111.0,100.0,13.3,1505.4,324.7,-0.7,1.8,2470.167,13.34,0.029,308.0
2019-07-19T22:48:17,42.805,6.029,-0.024,0.012,-0.015,105.0,111.0,101.0,13.4,1505.4,326.0,-0.7,1.9,2470.166,13.34,0.026,296.6
2019-07-19T22:51:18,42.805,6.029,-0.016,0.015,-0.013,104.0,110.0,102.0,13.4,1505.4,326.8,-0.7,1.8,2470.12,13.34,0.021,313.1
2019-07-19T22:54:19,42.805,6.029,-0.029,-0.013,-0.013,105.0,112.0,100.0,13.4,1505.4,325.1,-0.8,1.8,2470.13,13.34,0.031,245.9
2019-07-19T22:57:20,42.805,6.029,0.0,0.034,-0.001,104.0,110.0,100.0,13.4,1505.4,324.2,-0.8,1.8,2470.149,13.34,0.034,0.0
2019-07-19T23:00:21,42.805,6.029,-0.003,0.014,0.007,104.0,110.0,102.0,13.4,1505.4,326.3,-0.7,1.8,2470.116,13.34,0.014,347.9